This is the latest recevied weather packets stored in our database for station/object M0JUI-1. If no packets are shown the sender has not sent any weather packets the latest 10 day(s).
| Time | Temp. | Humidity | Pressure | Rain* | Wind** | Luminosity | Snow |
|---|---|---|---|---|---|---|---|
| 1788457257 | 18.89° C | 9% | 1014.3 hPa | 0 mm | - | 21 W/m² | - |
| 1788456945 | 19.44° C | 8% | 1014.2 hPa | 0 mm | - | 39 W/m² | - |
| 1788456646 | 19.44° C | 8% | 1014.1 hPa | 0 mm | - | 54 W/m² | - |
| 1788456345 | 19.44° C | 7% | 1014.3 hPa | 0 mm | - | 56 W/m² | - |
| 1788456033 | 19.44° C | 7% | 1014.2 hPa | 0 mm | - | 57 W/m² | - |
| 1788455733 | 19.44° C | 6% | 1014.2 hPa | 0 mm | - | 59 W/m² | - |
| 1788455433 | 19.44° C | 5% | 1014.4 hPa | 0 mm | - | 80 W/m² | - |
| 1788455121 | 19.44° C | 5% | 1014.3 hPa | 0 mm | - | 85 W/m² | - |
| 1788454821 | 19.44° C | 4% | 1014.2 hPa | 0 mm | - | 83 W/m² | - |
| 1788454521 | 19.44° C | 3% | 1014.2 hPa | 0 mm | - | 84 W/m² | - |
| 1788454209 | 20° C | 3% | 1014.6 hPa | 0 mm | - | 82 W/m² | - |
| 1788453909 | 20° C | 5% | 1014.8 hPa | 0 mm | - | 98 W/m² | - |
| 1788453609 | 20° C | 6% | 1014.6 hPa | 0 mm | - | 94 W/m² | - |
| 1788453309 | 20° C | 8% | 1014.9 hPa | 0 mm | - | 110 W/m² | - |
| 1788453009 | 20° C | 7% | 1014.7 hPa | 0 mm | - | 144 W/m² | - |
| 1788452709 | 20° C | 5% | 1014.7 hPa | 0 mm | - | 119 W/m² | - |
| 1788452409 | 20° C | 4% | 1014.7 hPa | 0 mm | - | 116 W/m² | - |
| 1788452109 | 20.56° C | 3% | 1014.8 hPa | 0 mm | - | 126 W/m² | - |
| 1788451809 | 20.56° C | 2% | 1015.1 hPa | 0 mm | - | 161 W/m² | - |
| 1788451509 | 20.56° C | 2% | 1014.9 hPa | 0 mm | - | 145 W/m² | - |
| 1788451209 | 20.56° C | 2% | 1015.1 hPa | 0 mm | - | 142 W/m² | - |
| 1788450909 | 20.56° C | 2% | 1015.3 hPa | 0 mm | - | 145 W/m² | - |
| 1788450609 | 20.56° C | 4% | 1015 hPa | 0 mm | - | 160 W/m² | - |
| 1788450310 | 20.56° C | 5% | 1015 hPa | 0 mm | - | 140 W/m² | - |
| 1788450009 | 20.56° C | 2% | 1014.8 hPa | 0 mm | - | 180 W/m² | - |
* Rain latest hour (hover to see other rain measurements)
** Current wind speed in m/s (hover to see current wind gust speed)